TimeMDT,TemperatureF,Dew PointF,Humidity,Sea Level PressureIn,VisibilityMPH,Wind Direction,Wind SpeedMPH,Gust SpeedMPH,PrecipitationIn,Events,Conditions,WindDirDegrees,DateUTC
12:00 AM,66.2,60.8,83,30.22,10.0,West,8.1,-,N/A,,Light Drizzle,260,2013-07-31 06:00:00
12:17 AM,66.2,60.8,83,30.22,10.0,West,8.1,-,N/A,,Overcast,280,2013-07-31 06:17:00
12:58 AM,66.4,59.5,79,30.16,10.0,North,15.0,-,0.00,,Mostly Cloudy,350,2013-07-31 06:58:00
1:06 AM,66.2,60.8,83,30.23,10.0,NNW,18.4,-,N/A,,Light Drizzle,340,2013-07-31 07:06:00
1:34 AM,64.4,60.8,88,30.21,10.0,NNW,10.4,-,N/A,,Overcast,330,2013-07-31 07:34:00
1:58 AM,62.8,59.7,90,30.15,10.0,WNW,6.9,-,0.00,,Overcast,290,2013-07-31 07:58:00
2:58 AM,61.7,52.0,70,30.12,10.0,Variable,1.2,-,N/A,,Clear,0,2013-07-31 08:58:00
3:58 AM,59.7,52.2,76,30.16,10.0,NW,5.8,18.4,N/A,,Partly Cloudy,310,2013-07-31 09:58:00
4:58 AM,60.6,53.1,76,30.19,10.0,North,9.2,-,N/A,,Partly Cloudy,360,2013-07-31 10:58:00
5:58 AM,59.4,53.6,81,30.20,10.0,North,9.2,-,N/A,,Clear,350,2013-07-31 11:58:00
6:58 AM,59.5,53.6,81,30.21,10.0,West,4.6,-,N/A,,Clear,270,2013-07-31 12:58:00
7:58 AM,67.3,50.9,56,30.21,10.0,NNW,9.2,-,N/A,,Clear,340,2013-07-31 13:58:00
8:58 AM,70.3,53.2,55,30.21,10.0,North,16.1,-,N/A,,Clear,350,2013-07-31 14:58:00
9:58 AM,73.6,55.8,54,30.21,10.0,North,11.5,-,N/A,,Clear,350,2013-07-31 15:58:00
10:58 AM,75.7,55.9,50,30.20,10.0,North,11.5,-,N/A,,Clear,360,2013-07-31 16:58:00
11:58 AM,77.2,54.0,44,30.19,10.0,North,9.2,21.9,N/A,,Partly Cloudy,10,2013-07-31 17:58:00
12:58 PM,80.2,53.1,39,30.16,10.0,NNE,12.7,21.9,N/A,,Clear,30,2013-07-31 18:58:00
1:58 PM,81.0,52.3,37,30.16,10.0,Variable,2.3,-,N/A,,Clear,0,2013-07-31 19:58:00
2:58 PM,81.9,50.0,33,30.14,10.0,NE,8.1,-,N/A,,Mostly Cloudy,50,2013-07-31 20:58:00
3:58 PM,84.6,50.0,30,30.12,10.0,Variable,3.5,-,N/A,,Partly Cloudy,0,2013-07-31 21:58:00
4:58 PM,83.3,51.1,33,30.11,10.0,East,4.6,-,N/A,,Clear,80,2013-07-31 22:58:00
5:58 PM,82.0,52.0,35,30.15,10.0,ESE,8.1,-,N/A,,Clear,120,2013-07-31 23:58:00
6:58 PM,80.4,51.1,36,30.09,10.0,ESE,5.8,-,N/A,,Clear,110,2013-08-01 00:58:00
7:58 PM,78.1,50.2,38,30.08,10.0,East,4.6,-,N/A,,Clear,90,2013-08-01 01:58:00
8:58 PM,72.9,51.6,47,30.09,10.0,ESE,5.8,-,N/A,,Clear,120,2013-08-01 02:58:00
9:58 PM,72.5,48.7,43,30.10,10.0,East,3.5,-,N/A,,Clear,100,2013-08-01 03:58:00
10:58 PM,66.7,50.5,56,30.10,10.0,West,5.8,-,N/A,,Clear,270,2013-08-01 04:58:00
11:58 PM,65.1,49.8,58,30.10,10.0,West,5.8,-,N/A,,Clear,270,2013-08-01 05:58:00